Location: Aurora Center
(43.5271°N, 98.5894°W)
Time: 09:35:44
(UTC-05:00)

Envisat - Visible Passes

Search period start: 13 July 2025 00:00
Search period end: 23 July 2025 00:00
Orbit: 761 x 763 km, 98.3° (Epoch: 13 July)

Date Brightness Start Highest point End Pass type
(mag) Time Alt. Az. Time Alt. Az. Time Alt. Az.
13 Jul 4.7 03:34:49 10° NE 03:39:05 27° E 03:42:59 11° SSE visible
13 Jul 3.7 05:13:26 10° N 05:18:07 38° WNW 05:22:45 10° SW visible
14 Jul 5.5 02:59:11 10° ENE 03:00:59 12° E 03:02:46 10° ESE visible
14 Jul 3.0 04:35:28 10° NNE 04:40:32 84° WNW 04:44:55 14° SSW visible
15 Jul 3.9 03:57:57 10° NNE 04:02:47 44° E 04:06:44 15° SSE visible
16 Jul 5.0 03:21:08 10° NE 03:24:50 20° E 03:28:30 10° SE visible
16 Jul 3.3 04:59:09 10° N 05:04:03 51° WNW 05:08:40 11° SW visible
17 Jul 3.1 04:21:20 10° NNE 04:26:25 73° ESE 04:30:29 16° S visible
18 Jul 4.4 03:44:02 10° NNE 03:48:35 32° E 03:52:17 14° SSE visible
18 Jul 4.0 05:23:00 10° N 05:27:28 32° WNW 05:31:54 10° SW visible
19 Jul 5.4 03:07:44 10° NE 03:10:32 15° E 03:13:20 10° ESE visible
19 Jul 3.0 04:44:55 10° N 04:49:58 69° WNW 04:54:14 14° SSW visible
20 Jul 3.5 04:07:17 10° NNE 04:12:15 54° E 04:16:01 17° S visible
21 Jul 4.8 03:30:14 10° NE 03:34:21 24° E 03:37:50 13° SE visible
21 Jul 3.6 05:08:40 10° N 05:13:26 42° WNW 05:17:57 11° SW visible
22 Jul 5.6 02:55:12 10° ENE 02:56:13 11° E 02:57:13 10° E visible
22 Jul 3.0 04:30:45 10° NNE 04:35:51 89° E 04:39:45 17° SSW visible
